| time (UTC) | temp F | wind direction | speed MPH | gust MPH | rain 1hr in | rain 24hr in | rain mn in | humidity % | barometer mb |
| 20260504204615 | 75 | 9 | 7.0 | 11.0 | 0.00 | 0.00 | 0.00 | 33 | 1003.2 |
| 20260504204115 | 76 | 55 | 7.0 | 19.0 | 0.00 | 0.00 | 0.00 | 33 | 1002.9 |
| 20260504203615 | 76 | 53 | 6.0 | 13.0 | 0.00 | 0.00 | 0.00 | 34 | 1003.0 |
| 20260504203115 | 76 | 340 | 6.0 | 12.0 | 0.00 | 0.00 | 0.00 | 33 | 1003.0 |
| 20260504202615 | 77 | 21 | 6.0 | 17.0 | 0.00 | 0.00 | 0.00 | 32 | 1002.9 |
| 20260504202115 | 77 | 27 | 6.0 | 11.0 | 0.00 | 0.00 | 0.00 | 33 | 1002.7 |
| 20260504201615 | 77 | 28 | 6.0 | 11.0 | 0.00 | 0.00 | 0.00 | 34 | 1002.7 |
| 20260504201115 | 77 | 317 | 7.0 | 12.0 | 0.00 | 0.00 | 0.00 | 34 | 1002.8 |
| 20260504200615 | 77 | 41 | 7.0 | 15.0 | 0.00 | 0.00 | 0.00 | 32 | 1003.0 |
| 20260504200115 | 77 | 61 | 6.0 | 14.0 | 0.00 | 0.00 | 0.00 | 32 | 1002.9 |
| 20260504195615 | 77 | 44 | 6.0 | 14.0 | 0.00 | 0.00 | 0.00 | 32 | 1002.9 |
| 20260504195115 | 78 | 22 | 7.0 | 15.0 | 0.00 | 0.00 | 0.00 | 32 | 1002.7 |
| 20260504194615 | 79 | 55 | 7.0 | 14.0 | 0.00 | 0.00 | 0.00 | 30 | 1002.5 |
| 20260504194115 | 79 | 19 | 6.0 | 14.0 | 0.00 | 0.00 | 0.00 | 30 | 1002.5 |
| 20260504193615 | 79 | 55 | 6.0 | 12.0 | 0.00 | 0.00 | 0.00 | 31 | 1002.4 |
| 20260504193115 | 80 | 26 | 6.0 | 13.0 | 0.00 | 0.00 | 0.00 | 30 | 1002.5 |
| 20260504192615 | 79 | 355 | 7.0 | 13.0 | 0.00 | 0.00 | 0.00 | 29 | 1002.4 |
| 20260504192115 | 80 | 355 | 7.0 | 15.0 | 0.00 | 0.00 | 0.00 | 29 | 1002.4 |
| 20260504191616 | 80 | 38 | 7.0 | 15.0 | 0.00 | 0.00 | 0.00 | 30 | 1002.6 |
| 20260504191115 | 80 | 319 | 6.0 | 15.0 | 0.00 | 0.00 | 0.00 | 29 | 1002.6 |
| 20260504190615 | 80 | 5 | 5.0 | 15.0 | 0.00 | 0.00 | 0.00 | 30 | 1002.6 |
| 20260504190115 | 80 | 94 | 5.0 | 11.0 | 0.00 | 0.00 | 0.00 | 29 | 1002.5 |
| 20260504185615 | 80 | 86 | 6.0 | 16.0 | 0.00 | 0.00 | 0.00 | 1002.5 | |
| 20260504185115 | 80 | 68 | 7.0 | 13.0 | 0.00 | 0.00 | 0.00 | 29 | 1002.5 |
| 20260504184615 | 81 | 63 | 6.0 | 14.0 | 0.00 | 0.00 | 0.00 | 28 | 1002.5 |
| 20260504184115 | 81 | 38 | 6.0 | 14.0 | 0.00 | 0.00 | 0.00 | 26 | 1002.4 |
| 20260504183615 | 81 | 316 | 5.0 | 12.0 | 0.00 | 0.00 | 0.00 | 27 | 1002.5 |
| 20260504183115 | 80 | 24 | 4.0 | 11.0 | 0.00 | 0.00 | 0.00 | 25 | 1002.4 |
| 20260504182615 | 80 | 286 | 3.0 | 8.0 | 0.00 | 0.00 | 0.00 | 22 | 1002.3 |
| 20260504182115 | 80 | 350 | 3.0 | 6.0 | 0.00 | 0.00 | 0.00 | 23 | 1002.4 |
| 20260504181615 | 81 | 327 | 3.0 | 8.0 | 0.00 | 0.00 | 0.00 | 24 | 1002.5 |
| 20260504181115 | 80 | 319 | 3.0 | 8.0 | 0.00 | 0.00 | 0.00 | 26 | 1002.6 |
| 20260504180616 | 80 | 273 | 4.0 | 8.0 | 0.00 | 0.00 | 0.00 | 24 | 1002.6 |
| 20260504180116 | 80 | 346 | 4.0 | 13.0 | 0.00 | 0.00 | 0.00 | 24 | 1002.7 |
| 20260504175616 | 80 | 336 | 4.0 | 11.0 | 0.00 | 0.00 | 0.00 | 23 | 1002.4 |
| 20260504175116 | 80 | 335 | 5.0 | 15.0 | 0.00 | 0.00 | 0.00 | 21 | 1002.6 |
| 20260504174616 | 80 | 0 | 4.0 | 11.0 | 0.00 | 0.00 | 0.00 | 21 | 1002.7 |
| 20260504174116 | 80 | 278 | 4.0 | 11.0 | 0.00 | 0.00 | 0.00 | 23 | 1002.7 |
| 20260504173616 | 80 | 313 | 4.0 | 12.0 | 0.00 | 0.00 | 0.00 | 22 | 1002.8 |
| 20260504173116 | 80 | 355 | 5.0 | 11.0 | 0.00 | 0.00 | 0.00 | 20 | 1002.7 |
| 20260504172616 | 80 | 248 | 4.0 | 15.0 | 0.00 | 0.00 | 0.00 | 21 | 1002.9 |
| 20260504172116 | 80 | 346 | 3.0 | 9.0 | 0.00 | 0.00 | 0.00 | 21 | 1002.8 |
| 20260504171616 | 79 | 310 | 4.0 | 9.0 | 0.00 | 0.00 | 0.00 | 21 | 1002.8 |
| 20260504171116 | 79 | 321 | 4.0 | 12.0 | 0.00 | 0.00 | 0.00 | 21 | 1002.9 |
| 20260504170616 | 79 | 273 | 4.0 | 14.0 | 0.00 | 0.00 | 0.00 | 23 | 1002.9 |
| 20260504170116 | 79 | 71 | 4.0 | 8.0 | 0.00 | 0.00 | 0.00 | 26 | 1002.9 |
| 20260504160116 | 74 | 258 | 2.0 | 7.0 | 0.00 | 0.00 | 0.00 | 35 | 1003.2 |
| 20260504151116 | 69 | 307 | 2.0 | 4.0 | 0.00 | 0.00 | 0.00 | 41 | 1003.5 |
| 20260504150616 | 69 | 263 | 2.0 | 6.0 | 0.00 | 0.00 | 0.00 | 41 | 1003.6 |
| 20260504150116 | 68 | 321 | 2.0 | 4.0 | 0.00 | 0.00 | 0.00 | 41 | 1003.6 |
| 20260504141116 | 63 | 296 | 1.0 | 3.0 | 0.00 | 0.00 | 0.00 | 49 | 1003.9 |
| 20260504140616 | 62 | 277 | 2.0 | 3.0 | 0.00 | 0.00 | 0.00 | 50 | 1003.9 |
| 20260504140116 | 61 | 300 | 2.0 | 4.0 | 0.00 | 0.00 | 0.00 | 50 | 1003.8 |
| 20260504130616 | 55 | 348 | 1.0 | 4.0 | 0.00 | 0.00 | 0.00 | 59 | 1003.7 |
| 20260504130116 | 55 | 331 | 1.0 | 2.0 | 0.00 | 0.00 | 0.00 | 60 | 1003.7 |
| 20260504120116 | 49 | 170 | 1.0 | 2.0 | 0.00 | 0.00 | 0.00 | 66 | 1003.3 |
| 20260504110616 | 49 | 167 | 0.0 | 0.0 | 0.00 | 0.00 | 0.00 | 67 | 1002.9 |
| 20260504110116 | 49 | 167 | 0.0 | 0.0 | 0.00 | 0.00 | 0.00 | 67 | 1003.0 |
| 20260504100116 | 53 | 167 | 0.0 | 0.0 | 0.00 | 0.00 | 0.00 | 59 | 1003.1 |
| 20260504090117 | 58 | 167 | 0.0 | 0.0 | 0.00 | 0.00 | 0.00 | 47 | 1003.2 |
| 20260504081617 | 59 | 171 | 2.0 | 2.0 | 0.00 | 0.00 | 0.00 | 45 | 1003.5 |
| 20260504081117 | 59 | 170 | 2.0 | 4.0 | 0.00 | 0.00 | 0.00 | 45 | 1003.6 |
| 20260504080617 | 59 | 167 | 1.0 | 4.0 | 0.00 | 0.00 | 0.00 | 45 | 1003.7 |
| 20260504080117 | 60 | 163 | 1.0 | 2.0 | 0.00 | 0.00 | 0.00 | 45 | 1003.8 |
| 20260504070117 | 59 | 98 | 1.0 | 2.0 | 0.00 | 0.00 | 0.00 | 44 | 1004.8 |
| 20260504060117 | 59 | 107 | 0.0 | 2.0 | 0.00 | 0.00 | 0.00 | 43 | 1006.3 |
| 20260504050617 | 61 | 90 | 0.0 | 2.0 | 0.00 | 0.00 | 0.00 | 41 | 1006.8 |
| 20260504050117 | 61 | 103 | 1.0 | 2.0 | 0.00 | 0.00 | 0.00 | 40 | 1007.0 |
| 20260504045617 | 62 | 103 | 0.0 | 2.0 | 0.00 | 0.00 | 0.00 | 40 | 1007.0 |
| 20260504045117 | 62 | 103 | 0.0 | 1.0 | 0.00 | 0.00 | 0.00 | 39 | 1007.0 |
| 20260504044617 | 62 | 103 | 1.0 | 1.0 | 0.00 | 0.00 | 0.00 | 39 | 1007.0 |
| 20260504044117 | 63 | 103 | 1.0 | 2.0 | 0.00 | 0.00 | 0.00 | 38 | 1007.0 |
| 20260504043617 | 63 | 103 | 1.0 | 2.0 | 0.00 | 0.00 | 0.00 | 38 | 1007.1 |
| 20260504043117 | 63 | 105 | 1.0 | 2.0 | 0.00 | 0.00 | 0.00 | 38 | 1007.1 |
| 20260504042617 | 63 | 105 | 1.0 | 4.0 | 0.00 | 0.00 | 0.00 | 38 | 1007.1 |
| 20260504042117 | 63 | 131 | 0.0 | 2.0 | 0.00 | 0.00 | 0.00 | 38 | 1007.2 |
| 20260504041617 | 63 | 129 | 0.0 | 0.0 | 0.00 | 0.00 | 0.00 | 38 | 1007.3 |
| 20260504041117 | 63 | 129 | 0.0 | 3.0 | 0.00 | 0.00 | 0.00 | 38 | 1007.2 |
| 20260504040617 | 63 | 127 | 0.0 | 2.0 | 0.00 | 0.00 | 0.00 | 38 | 1007.3 |
| 20260504040117 | 63 | 128 | 0.0 | 0.0 | 0.00 | 0.00 | 0.00 | 37 | 1007.3 |
| 20260504035617 | 64 | 128 | 0.0 | 0.0 | 0.00 | 0.00 | 0.00 | 37 | 1007.3 |
| 20260504035117 | 64 | 128 | 1.0 | 1.0 | 0.00 | 0.00 | 0.00 | 38 | 1007.5 |
| 20260504034617 | 64 | 128 | 1.0 | 2.0 | 0.00 | 0.00 | 0.00 | 37 | 1007.5 |
| 20260504034117 | 64 | 128 | 1.0 | 3.0 | 0.00 | 0.00 | 0.00 | 37 | 1007.6 |
| 20260504033617 | 64 | 100 | 0.0 | 2.0 | 0.00 | 0.00 | 0.00 | 37 | 1007.6 |
| 20260504033117 | 64 | 99 | 1.0 | 2.0 | 0.00 | 0.00 | 0.00 | 38 | 1007.8 |
| 20260504032617 | 64 | 98 | 1.0 | 2.0 | 0.00 | 0.00 | 0.00 | 38 | 1007.8 |
| 20260504032117 | 64 | 99 | 1.0 | 3.0 | 0.00 | 0.00 | 0.00 | 38 | 1007.8 |
| 20260504031618 | 64 | 94 | 1.0 | 3.0 | 0.00 | 0.00 | 0.00 | 38 | 1007.9 |
| 20260504031117 | 64 | 75 | 1.0 | 3.0 | 0.00 | 0.00 | 0.00 | 38 | 1007.9 |
| 20260504030617 | 64 | 71 | 1.0 | 3.0 | 0.00 | 0.00 | 0.00 | 39 | 1007.9 |
| 20260504030117 | 64 | 80 | 1.0 | 5.0 | 0.00 | 0.00 | 0.00 | 39 | 1008.0 |
| 20260504025617 | 65 | 63 | 1.0 | 3.0 | 0.00 | 0.00 | 0.00 | 39 | 1008.0 |
| 20260504025117 | 65 | 61 | 1.0 | 4.0 | 0.00 | 0.00 | 0.00 | 39 | 1007.9 |
| 20260504024617 | 65 | 80 | 1.0 | 4.0 | 0.00 | 0.00 | 0.00 | 39 | 1008.0 |
| 20260504024117 | 65 | 68 | 1.0 | 2.0 | 0.00 | 0.00 | 0.00 | 39 | 1008.0 |
| 20260504023617 | 66 | 65 | 1.0 | 3.0 | 0.00 | 0.00 | 0.00 | 39 | 1007.9 |
| 20260504023117 | 66 | 86 | 2.0 | 3.0 | 0.00 | 0.00 | 0.00 | 38 | 1007.9 |
| 20260504022617 | 66 | 63 | 2.0 | 5.0 | 0.00 | 0.00 | 0.00 | 38 | 1008.0 |
| 20260504022117 | 67 | 71 | 2.0 | 4.0 | 0.00 | 0.00 | 0.00 | 37 | 1007.9 |
| 20260504021617 | 67 | 57 | 2.0 | 4.0 | 0.00 | 0.00 | 0.00 | 37 | 1007.8 |
| 20260504021117 | 67 | 49 | 2.0 | 5.0 | 0.00 | 0.00 | 0.00 | 37 | 1007.8 |
| 20260504020618 | 68 | 63 | 2.0 | 3.0 | 0.00 | 0.00 | 0.00 | 37 | 1007.9 |
| 20260504020117 | 68 | 46 | 2.0 | 4.0 | 0.00 | 0.00 | 0.00 | 36 | 1007.8 |
| 20260504015618 | 69 | 80 | 2.0 | 5.0 | 0.00 | 0.00 | 0.00 | 35 | 1007.9 |
| 20260504015118 | 69 | 43 | 2.0 | 5.0 | 0.00 | 0.00 | 0.00 | 35 | 1007.8 |
| 20260504014618 | 69 | 49 | 2.0 | 5.0 | 0.00 | 0.00 | 0.00 | 35 | 1007.8 |
| 20260504014118 | 70 | 57 | 1.0 | 3.0 | 0.00 | 0.00 | 0.00 | 34 | 1007.7 |
| 20260504013618 | 70 | 58 | 1.0 | 2.0 | 0.00 | 0.00 | 0.00 | 34 | 1007.6 |
| 20260504013118 | 70 | 58 | 1.0 | 2.0 | 0.00 | 0.00 | 0.00 | 34 | 1007.7 |
| 20260504012618 | 70 | 58 | 1.0 | 3.0 | 0.00 | 0.00 | 0.00 | 33 | 1007.8 |
| 20260504012118 | 71 | 58 | 1.0 | 3.0 | 0.00 | 0.00 | 0.00 | 33 | 1007.7 |
| 20260504011618 | 71 | 58 | 1.0 | 2.0 | 0.00 | 0.00 | 0.00 | 32 | 1007.7 |
| 20260504011118 | 71 | 58 | 1.0 | 3.0 | 0.00 | 0.00 | 0.00 | 32 | 1007.8 |
| 20260504010618 | 71 | 62 | 1.0 | 2.0 | 0.00 | 0.00 | 0.00 | 32 | 1007.8 |
| 20260504010118 | 71 | 62 | 2.0 | 3.0 | 0.00 | 0.00 | 0.00 | 31 | 1007.9 |
| 20260504005618 | 72 | 71 | 2.0 | 4.0 | 0.00 | 0.00 | 0.00 | 31 | 1007.9 |
| 20260504005118 | 72 | 73 | 2.0 | 4.0 | 0.00 | 0.00 | 0.00 | 31 | 1008.0 |
| 20260504004618 | 72 | 51 | 2.0 | 3.0 | 0.00 | 0.00 | 0.00 | 31 | 1008.1 |
| 20260504004118 | 72 | 29 | 2.0 | 3.0 | 0.00 | 0.00 | 0.00 | 30 | 1008.1 |
| 20260504003618 | 73 | 39 | 2.0 | 4.0 | 0.00 | 0.00 | 0.00 | 30 | 1008.2 |
| 20260504003118 | 73 | 32 | 2.0 | 5.0 | 0.00 | 0.00 | 0.00 | 30 | 1008.2 |
| 20260504002618 | 73 | 56 | 2.0 | 5.0 | 0.00 | 0.00 | 0.00 | 30 | 1008.2 |
| 20260504002118 | 73 | 59 | 3.0 | 4.0 | 0.00 | 0.00 | 0.00 | 29 | 1008.3 |
| 20260504001618 | 73 | 49 | 4.0 | 9.0 | 0.00 | 0.00 | 0.00 | 29 | 1008.3 |
| 20260504001118 | 73 | 82 | 4.0 | 9.0 | 0.00 | 0.00 | 0.00 | 29 | 1008.5 |
| 20260504000618 | 73 | 60 | 3.0 | 8.0 | 0.00 | 0.00 | 0.00 | 29 | 1008.4 |
| 20260504000118 | 73 | 20 | 3.0 | 5.0 | 0.00 | 0.00 | 0.00 | 30 | 1008.5 |
| 20260503235618 | 73 | 56 | 3.0 | 6.0 | 0.00 | 0.00 | 0.00 | 30 | 1008.5 |
| 20260503235118 | 73 | 61 | 3.0 | 8.0 | 0.00 | 0.00 | 0.00 | 29 | 1008.5 |
| 20260503234618 | 74 | 58 | 4.0 | 7.0 | 0.00 | 0.00 | 0.00 | 30 | 1008.6 |
| 20260503234118 | 74 | 57 | 4.0 | 8.0 | 0.00 | 0.00 | 0.00 | 29 | 1008.7 |
| 20260503233618 | 74 | 32 | 4.0 | 8.0 | 0.00 | 0.00 | 0.00 | 27 | 1008.7 |
| 20260503233118 | 74 | 11 | 4.0 | 11.0 | 0.00 | 0.00 | 0.00 | 28 | 1008.8 |
| 20260503232618 | 74 | 61 | 3.0 | 9.0 | 0.00 | 0.00 | 0.00 | 28 | 1008.8 |
| 20260503232118 | 74 | 5 | 3.0 | 5.0 | 0.00 | 0.00 | 0.00 | 29 | 1008.8 |
| 20260503231618 | 75 | 84 | 3.0 | 6.0 | 0.00 | 0.00 | 0.00 | 28 | 1008.9 |
| 20260503231118 | 75 | 42 | 2.0 | 5.0 | 0.00 | 0.00 | 0.00 | 28 | 1009.0 |
| 20260503230618 | 75 | 47 | 3.0 | 5.0 | 0.00 | 0.00 | 0.00 | 27 | 1008.9 |
| 20260503230118 | 75 | 9 | 3.0 | 7.0 | 0.00 | 0.00 | 0.00 | 27 | 1009.0 |
| 20260503225618 | 75 | 23 | 2.0 | 3.0 | 0.00 | 0.00 | 0.00 | 26 | 1009.0 |
| 20260503225118 | 75 | 355 | 3.0 | 8.0 | 0.00 | 0.00 | 0.00 | 27 | 1009.1 |
| 20260503224618 | 75 | 71 | 4.0 | 5.0 | 0.00 | 0.00 | 0.00 | 26 | 1009.1 |
| 20260503224118 | 76 | 41 | 4.0 | 11.0 | 0.00 | 0.00 | 0.00 | 26 | 1009.1 |
| 20260503223618 | 76 | 52 | 2.0 | 10.0 | 0.00 | 0.00 | 0.00 | 27 | 1009.1 |
| 20260503223118 | 75 | 42 | 1.0 | 5.0 | 0.00 | 0.00 | 0.00 | 27 | 1009.1 |
| 20260503222618 | 75 | 90 | 1.0 | 3.0 | 0.00 | 0.00 | 0.00 | 27 | 1009.2 |
| 20260503222118 | 75 | 105 | 2.0 | 3.0 | 0.00 | 0.00 | 0.00 | 27 | 1009.2 |
| 20260503221618 | 75 | 78 | 2.0 | 6.0 | 0.00 | 0.00 | 0.00 | 27 | 1009.2 |
| 20260503221118 | 75 | 101 | 1.0 | 3.0 | 0.00 | 0.00 | 0.00 | 28 | 1009.3 |
| 20260503220618 | 75 | 115 | 1.0 | 2.0 | 0.00 | 0.00 | 0.00 | 26 | 1009.4 |
| 20260503220118 | 75 | 108 | 2.0 | 2.0 | 0.00 | 0.00 | 0.00 | 28 | 1009.3 |
| 20260503215618 | 75 | 107 | 3.0 | 7.0 | 0.00 | 0.00 | 0.00 | 28 | 1009.4 |
| 20260503215118 | 75 | 121 | 3.0 | 8.0 | 0.00 | 0.00 | 0.00 | 27 | 1009.5 |
| 20260503214618 | 75 | 24 | 2.0 | 5.0 | 0.00 | 0.00 | 0.00 | 27 | 1009.7 |
| 20260503214118 | 75 | 85 | 2.0 | 4.0 | 0.00 | 0.00 | 0.00 | 28 | 1009.8 |
| 20260503213618 | 75 | 355 | 2.0 | 7.0 | 0.00 | 0.00 | 0.00 | 27 | 1009.9 |
| 20260503213118 | 75 | 49 | 2.0 | 5.0 | 0.00 | 0.00 | 0.00 | 27 | 1010.1 |
| 20260503212618 | 75 | 48 | 2.0 | 4.0 | 0.00 | 0.00 | 0.00 | 28 | 1010.0 |
| 20260503212118 | 76 | 54 | 3.0 | 9.0 | 0.00 | 0.00 | 0.00 | 27 | 1010.0 |
| 20260503211618 | 76 | 45 | 5.0 | 8.0 | 0.00 | 0.00 | 0.00 | 27 | 1010.0 |
| 20260503211118 | 76 | 31 | 4.0 | 10.0 | 0.00 | 0.00 | 0.00 | 27 | 1010.1 |
| 20260503210618 | 76 | 69 | 2.0 | 4.0 | 0.00 | 0.00 | 0.00 | 29 | 1010.1 |
| 20260503210118 | 76 | 164 | 1.0 | 4.0 | 0.00 | 0.00 | 0.00 | 27 | 1010.1 |
| 20260503205618 | 75 | 162 | 1.0 | 3.0 | 0.00 | 0.00 | 0.00 | 28 | 1010.2 |
| 20260503205118 | 75 | 187 | 2.0 | 5.0 | 0.00 | 0.00 | 0.00 | 27 | 1010.3 |